Radiation Dose measured at exhaust stack monitor of Fukushima Daiichi Nuclear Power Station
Date,Time,Unit 5 6 shared exhaust cylinders,Wind Direction,Wind Velocity(m/s)
2021/12/24,00:00,4.1,northwest,6.0
2021/12/24,00:10,3.9,northwest,5.1
2021/12/24,00:20,3.8,north-northwest,4.4
2021/12/24,00:30,4.1,north-northwest,3.6
2021/12/24,00:40,4.0,north-northwest,3.0
2021/12/24,00:50,3.9,north,3.3
2021/12/24,01:00,4.0,north-northeast,2.6
2021/12/24,01:10,4.1,north-northeast,2.5
2021/12/24,01:20,4.1,north-northeast,2.3
2021/12/24,01:30,4.0,north-northeast,1.7
2021/12/24,01:40,4.1,north-northeast,1.7
2021/12/24,01:50,3.9,north,2.0
2021/12/24,02:00,4.0,north,2.9
2021/12/24,02:10,4.0,north-northwest,3.1
2021/12/24,02:20,4.0,north-northwest,3.6
2021/12/24,02:30,4.0,north,4.5
2021/12/24,02:40,3.9,north-northwest,6.6
2021/12/24,02:50,4.0,north,6.2
2021/12/24,03:00,3.8,north-northwest,5.4
2021/12/24,03:10,4.0,north-northwest,5.9
2021/12/24,03:20,4.0,north-northwest,5.7
2021/12/24,03:30,3.8,north-northwest,5.5
2021/12/24,03:40,4.1,north-northwest,4.6
2021/12/24,03:50,4.2,northwest,4.5
2021/12/24,04:00,4.1,northwest,4.7
2021/12/24,04:10,3.9,northwest,3.8
2021/12/24,04:20,4.0,northwest,4.5
2021/12/24,04:30,3.8,northwest,4.4
2021/12/24,04:40,4.2,northwest,4.7
2021/12/24,04:50,4.0,northwest,4.6
2021/12/24,05:00,4.1,northwest,4.0
2021/12/24,05:10,3.8,northwest,4.3
2021/12/24,05:20,4.0,northwest,4.1
2021/12/24,05:30,4.0,northwest,4.2
2021/12/24,05:40,3.9,northwest,4.5
2021/12/24,05:50,4.1,northwest,4.1
2021/12/24,06:00,4.2,northwest,4.0
2021/12/24,06:10,4.1,north-northwest,3.2
2021/12/24,06:20,3.9,north-northwest,3.4
2021/12/24,06:30,4.2,northwest,3.4
2021/12/24,06:40,3.9,northwest,4.0
2021/12/24,06:50,4.0,northwest,4.1
2021/12/24,07:00,4.0,northwest,4.2
2021/12/24,07:10,3.8,northwest,5.5
2021/12/24,07:20,3.9,north-northwest,4.3
2021/12/24,07:30,4.0,north-northwest,5.4
2021/12/24,07:40,3.8,north-northwest,4.9
2021/12/24,07:50,3.8,northwest,5.7
2021/12/24,08:00,3.9,northwest,5.4
2021/12/24,08:10,4.1,north-northwest,4.8
2021/12/24,08:20,4.0,north-northwest,5.5
2021/12/24,08:30,4.0,north-northwest,5.7
2021/12/24,08:40,4.1,north-northwest,5.1
2021/12/24,08:50,4.1,northwest,6.1
2021/12/24,09:00,4.4,north-northwest,5.3
2021/12/24,09:10,4.0,north-northwest,5.0
2021/12/24,09:20,3.8,north-northwest,3.7
2021/12/24,09:30,4.0,north-northwest,3.7
2021/12/24,09:40,4.0,north-northwest,4.1
2021/12/24,09:50,4.1,north-northwest,4.0
2021/12/24,10:00,3.9,north-northwest,4.2
2021/12/24,10:10,3.9,north,4.0
2021/12/24,10:20,4.0,north,4.1
2021/12/24,10:30,4.0,north-northwest,4.3
2021/12/24,10:40,3.9,north,3.9
2021/12/24,10:50,3.9,north,3.5
2021/12/24,11:00,4.0,north,4.0
2021/12/24,11:10,3.9,north-northeast,4.3
2021/12/24,11:20,4.1,north,3.9
2021/12/24,11:30,4.0,north-northeast,3.8
2021/12/24,11:40,4.0,north-northeast,3.8
2021/12/24,11:50,4.1,north,3.1
2021/12/24,12:00,3.9,north,3.8
2021/12/24,12:10,3.9,north-northeast,4.1
2021/12/24,12:20,4.0,north,3.8
2021/12/24,12:30,4.0,north-northeast,4.5
2021/12/24,12:40,4.0,north-northeast,4.4
2021/12/24,12:50,4.0,north-northeast,5.1
2021/12/24,13:00,3.9,north-northeast,4.4
2021/12/24,13:10,3.9,north-northeast,4.3
2021/12/24,13:20,4.2,north-northeast,4.0
2021/12/24,13:30,4.0,northeast,3.9
2021/12/24,13:40,3.9,north-northeast,4.2
2021/12/24,13:50,4.1,north-northeast,3.9
2021/12/24,14:00,4.1,northeast,3.3
2021/12/24,14:10,3.9,north-northeast,3.7
2021/12/24,14:20,4.2,north-northeast,3.8
2021/12/24,14:30,4.2,north-northeast,3.3
2021/12/24,14:40,4.1,north,3.0
2021/12/24,14:50,3.9,north,3.1
2021/12/24,15:00,4.1,north,3.2
2021/12/24,15:10,4.0,north,3.2
2021/12/24,15:20,4.1,north,3.4
2021/12/24,15:30,3.9,north,3.1
2021/12/24,15:40,4.1,north,2.8
2021/12/24,15:50,4.1,north,2.0
2021/12/24,16:00,4.0,north-northwest,1.1
2021/12/24,16:10,3.9,north-northwest,1.1
2021/12/24,16:20,4.0,northwest,1.5
2021/12/24,16:30,4.0,northwest,1.2
2021/12/24,16:40,3.9,west-northwest,0.9
2021/12/24,16:50,4.0,west,1.5
2021/12/24,17:00,3.9,west-southwest,1.2
2021/12/24,17:10,4.0,southwest,2.0
2021/12/24,17:20,4.2,southwest,1.5
2021/12/24,17:30,4.1,southwest,2.2
2021/12/24,17:40,4.0,south-southwest,2.6
2021/12/24,17:50,3.9,south-southwest,2.9
2021/12/24,18:00,3.9,south-southwest,3.3
2021/12/24,18:10,4.0,south-southwest,3.5
2021/12/24,18:20,4.0,south-southwest,3.1
2021/12/24,18:30,4.0,south-southwest,2.0
2021/12/24,18:40,3.9,south-southwest,2.2
2021/12/24,18:50,4.2,south,2.6
2021/12/24,19:00,3.8,south,2.6
2021/12/24,19:10,4.1,south-southwest,3.3
2021/12/24,19:20,4.0,southwest,2.3
2021/12/24,19:30,4.1,west-southwest,1.9
2021/12/24,19:40,4.0,west-southwest,2.0
2021/12/24,19:50,4.0,west,2.9
2021/12/24,20:00,4.0,west-southwest,3.3
2021/12/24,20:10,4.0,west-southwest,2.5
2021/12/24,20:20,3.9,west,2.2
2021/12/24,20:30,4.0,west-southwest,2.3
2021/12/24,20:40,4.0,west,2.9
2021/12/24,20:50,4.0,west-southwest,4.1
2021/12/24,21:00,4.0,southwest,4.9
2021/12/24,21:10,4.1,southwest,5.0
2021/12/24,21:20,4.0,southwest,5.6
2021/12/24,21:30,3.9,southwest,6.1
2021/12/24,21:40,4.0,southwest,5.6
2021/12/24,21:50,4.2,southwest,5.4
2021/12/24,22:00,4.0,southwest,5.2
2021/12/24,22:10,4.0,southwest,4.9
2021/12/24,22:20,4.1,southwest,4.6
2021/12/24,22:30,4.0,southwest,5.0
2021/12/24,22:40,3.9,south-southwest,5.7
2021/12/24,22:50,4.0,southwest,6.1
2021/12/24,23:00,4.0,south-southwest,7.1
2021/12/24,23:10,4.0,south,4.8
2021/12/24,23:20,4.0,south,4.1
2021/12/24,23:30,4.1,south-southwest,3.5
2021/12/24,23:40,4.0,south,3.6
2021/12/24,23:50,4.1,south,4.1
